Погода в Саутенде-он-Си

Великобритания     51°32′51″N   0°42′18″E
темп.,
°C
ветер,
м/с
пор.,
м/с
влажн.,
%
обл.,
%
осадки,
мм/ч
давл.,
гПа
погр.,
м
21 апреля, ср
ср2101:00+8св2282100 0.0 101810
04:00+8ссв3484100 0.0 101860
07:00+7ссв468885 0.0 1019181
10:00+9св7108187 0.0 1021492
13:00+8всв911836 0.0 1022608
16:00+8всв911786 0.0 1022520
19:00+7всв1011735 0.0 1023636
22:00+6св9107633 0.0 1025745
22 апреля, чт
чт2201:00+6всв79735 0.0 1025674
04:00+6всв79745 0.0 1026730
07:00+6св68745 0.0 1027704
10:00+7всв67705 0.0 1028757
13:00+7всв67694 0.0 1029617
16:00+7в67685 0.0 1029477
19:00+7в67705 0.0 1029465
22:00+7всв68745 0.0 1030447
23 апреля, пт
пт2301:00+7всв57763 0.0 1030412
04:00+7всв56760 0.0 1030399
07:00+7всв56750 0.0 1030442
10:00+8всв66720 0.0 1031484
13:00+8в67700 0.0 1031430
16:00+8в67690 0.0 1030387
19:00+8всв69730 0.0 1030402
22:00+8всв69760 0.0 1030332
24 апреля, сб
сб2401:00+8всв610790 0.0 1029326
04:00+8в7108138 0.0 1029362
07:00+8в710815 0.0 1029492
10:00+8в7107899 0.0 1030537
13:00+8всв7108164 0.0 1030555
16:00+8всв81182100 0.0 1029514
19:00+8всв81279100 0.0 1029439
22:00+8всв81286100 0.0 1029470
25 апреля, вс
вс2501:00+8всв81185100 0.0 1028509
04:00+8всв81083100 0.0 1027541
07:00+8всв91075100 0.0 1026578
10:00+8всв91069100 0.0 1026603
13:00+8всв91070100 0.0 1025605
16:00+8св9107399 0.0 1023529
19:00+8св8117626 0.0 1021451
22:00+7св913816 0.0 1020396